Temp
-12 -12 -12 -13 -13 -14 -14 -14 -14 -14 -15 -15 -15 -15 -17 -17 -17 -17 -17 -17 -17 -18 -17 -17 -17 -17 -18 -18 -18 -18 -19 -18 -19 -19 -19 -20 -22 -22 -23 -23 -23 -24 -26 -28
-11 -11 -12 -12 -12 -12 -13 -13 -13 -13 -14 -15 -16 -17 -18 -17 -17 -17 -17 -18 -18 -17 -17 -17 -18 -17 -18 -18 -18 -18 -18 -19 -19 -19 -20 -22 -22 -23 -23 -23 -24 -25 -27 -29
-12 -12 -12 -11 -12 -12 -12 -13 -13 -14 -14 -15 -16 -17 -18 -18 -18 -18 -18 -18 -17 -18 -17 -18 -18 -18 -18 -18 -18 -19 -19 -19 -20 -20 -21 -22 -23 -23 -24 -24 -24 -25 -28 -29
-12 -12 -12 -12 -12 -12 -13 -13 -13 -14 -14 -15 -15 -16 -17 -18 -18 -18 -18 -18 -18 -18 -18 -18 -18 -18 -18 -18 -18 -19 -19 -20 -21 -21 -22 -23 -24 -24 -24 -24 -24 -26 -28 -29
-12 -12 -13 -13 -13 -13 -13 -13 -14 -14 -14 -15 -16 -16 -17 -18 -18 -18 -18 -18 -18 -18 -18 -18 -18 -18 -18 -18 -19 -19 -20 -20 -21 -22 -23 -23 -24 -24 -24 -24 -25 -27 -28 -29
-13 -13 -13 -13 -14 -14 -14 -14 -14 -14 -14 -15 -16 -17 -18 -18 -18 -18 -18 -18 -18 -18 -18 -18 -18 -18 -18 -19 -19 -20 -20 -21 -21 -22 -23 -24 -24 -25 -25 -25 -25 -27 -28 -28
-13 -13 -13 -13 -14 -14 -14 -15 -15 -15 -15 -16 -17 -18 -19 -18 -18 -18 -18 -18 -18 -18 -18 -18 -19 -19 -19 -20 -20 -20 -21 -21 -22 -23 -24 -24 -25 -25 -25 -25 -25 -27 -28 -28
-13 -13 -14 -14 -14 -14 -15 -15 -15 -16 -16 -17 -17 -18 -19 -19 -19 -18 -18 -18 -18 -19 -19 -19 -19 -19 -19 -20 -20 -21 -22 -22 -23 -23 -24 -25 -25 -25 -25 -25 -26 -27 -28 -28
-14 -14 -14 -14 -15 -15 -15 -15 -15 -16 -17 -18 -18 -18 -19 -19 -19 -19 -19 -19 -19 -19 -19 -19 -19 -19 -20 -20 -21 -22 -22 -23 -23 -24 -24 -25 -25 -25 -25 -26 -26 -27 -28 -28
-14 -14 -15 -14 -15 -15 -15 -15 -16 -16 -17 -18 -18 -18 -19 -19 -19 -19 -19 -19 -19 -19 -19 -19 -20 -20 -20 -21 -22 -23 -23 -24 -24 -24 -25 -25 -25 -26 -26 -26 -26 -27 -28 -28
-15 -15 -15 -15 -15 -15 -15 -16 -16 -17 -17 -18 -18 -18 -18 -19 -19 -19 -19 -19 -19 -19 -19 -19 -20 -20 -21 -22 -23 -24 -24 -24 -24 -25 -25 -25 -26 -26 -26 -26 -27 -27 -28 -28
-15 -15 -15 -15 -15 -16 -16 -16 -17 -17 -18 -18 -18 -18 -18 -19 -19 -19 -19 -19 -19 -19 -19 -19 -20 -21 -22 -23 -24 -24 -24 -25 -25 -25 -26 -26 -26 -26 -26 -26 -27 -27 -28 -28
-16 -16 -16 -16 -16 -16 -16 -16 -17 -18 -18 -18 -18 -18 -19 -19 -19 -19 -19 -19 -19 -20 -20 -21 -21 -22 -22 -23 -24 -24 -25 -25 -25 -26 -26 -26 -26 -26 -26 -26 -27 -27 -28 -28
-16 -16 -16 -16 -16 -16 -17 -17 -18 -18 -18 -18 -19 -19 -19 -19 -19 -19 -19 -19 -20 -20 -21 -22 -22 -23 -23 -24 -24 -25 -25 -25 -26 -26 -27 -26 -26 -26 -26 -26 -27 -27 -27 -28
-16 -16 -16 -16 -17 -17 -17 -17 -18 -18 -18 -18 -19 -19 -19 -20 -20 -19 -20 -20 -21 -21 -22 -22 -22 -23 -23 -24 -25 -25 -26 -26 -26 -27 -27 -27 -27 -26 -26 -26 -26 -27 -27 -28
-16 -17 -17 -17 -17 -17 -18 -18 -18 -19 -19 -19 -19 -19 -20 -20 -20 -20 -20 -21 -22 -22 -22 -23 -23 -23 -24 -25 -25 -26 -26 -26 -27 -27 -27 -27 -27 -27 -26 -26 -26 -27 -27 -27
-17 -17 -17 -18 -18 -18 -18 -18 -19 -19 -19 -19 -20 -20 -20 -20 -20 -21 -21 -21 -22 -22 -22 -23 -24 -24 -25 -26 -26 -27 -27 -27 -27 -28 -28 -27 -27 -27 -27 -27 -27 -27 -27 -27
-17 -17 -18 -18 -18 -18 -18 -19 -19 -20 -20 -20 -20 -20 -20 -20 -21 -21 -22 -22 -22 -22 -23 -23 -24 -25 -25 -26 -27 -27 -27 -27 -27 -28 -28 -28 -27 -27 -27 -27 -27 -27 -27 -27
-18 -18 -18 -18 -18 -18 -19 -20 -20 -20 -20 -20 -20 -20 -21 -21 -22 -22 -22 -22 -22 -23 -23 -23 -24 -25 -26 -27 -27 -28 -28 -28 -28 -28 -28 -28 -28 -28 -28 -28 -27 -27 -27 -27
-18 -18 -18 -19 -19 -19 -19 -20 -20 -20 -20 -20 -21 -21 -21 -22 -22 -22 -22 -23 -23 -23 -24 -24 -24 -25 -26 -27 -28 -28 -28 -28 -28 -28 -28 -28 -28 -28 -28 -28 -28 -28 -28 -27
-18 -19 -19 -19 -19 -19 -20 -20 -20 -20 -20 -21 -21 -22 -22 -22 -22 -23 -23 -23 -23 -24 -24 -24 -24 -25 -27 -27 -28 -28 -28 -28 -29 -29 -29 -28 -28 -28 -28 -28 -28 -28 -28 -28
-19 -19 -19 -19 -19 -20 -20 -20 -20 -21 -21 -22 -22 -22 -22 -23 -23 -23 -23 -23 -24 -24 -24 -24 -24 -25 -27 -28 -28 -28 -28 -28 -29 -29 -29 -29 -29 -28 -28 -28 -28 -28 -28 -28
-19 -19 -20 -20 -20 -20 -21 -21 -21 -21 -22 -22 -22 -23 -23 -23 -23 -24 -24 -24 -24 -25 -25 -25 -25 -25 -27 -28 -28 -29 -28 -28 -29 -29 -29 -29 -29 -29 -29 -29 -29 -29 -29 -28
-20 -20 -20 -20 -20 -21 -21 -21 -22 -23 -23 -22 -23 -23 -23 -24 -24 -24 -24 -25 -25 -25 -25 -26 -26 -26 -26 -28 -28 -29 -29 -29 -29 -29 -29 -29 -29 -29 -29 -29 -29 -29 -29 -29
-20 -20 -20 -20 -21 -21 -21 -22 -23 -23 -23 -23 -23 -24 -24 -24 -24 -25 -25 -25 -26 -26 -26 -26 -26 -26 -26 -27 -28 -29 -29 -29 -29 -29 -29 -29 -29 -29 -29 -29 -29 -29 -29 -29
-20 -20 -20 -21 -21 -21 -22 -23 -23 -23 -23 -23 -23 -24 -24 -24 -25 -25 -26 -26 -26 -26 -26 -26 -27 -27 -27 -27 -28 -29 -29 -29 -29 -29 -29 -29 -29 -29 -29 -29 -29 -29 -29 -29
-20 -21 -21 -22 -21 -22 -23 -23 -23 -23 -23 -23 -24 -24 -24 -25 -25 -26 -26 -26 -26 -26 -27 -27 -27 -27 -27 -27 -28 -28 -29 -30 -30 -29 -29 -29 -29 -29 -29 -29 -29 -29 -29 -29
Height
5790 5789 5788 5788 5787 5786 5783 5781 5778 5776 5772 5769 5766 5760 5756 5752 5747 5743 5738 5733 5726 5719 5713 5705 5697 5690 5681 5672 5664 5654 5645 5636 5628 5616 5607 5596 5586 5576 5564 5553 5540 5525 5511 5501
5785 5784 5783 5781 5780 5779 5777 5774 5773 5769 5766 5761 5757 5753 5749 5745 5741 5736 5731 5725 5718 5711 5704 5697 5690 5683 5675 5666 5657 5648 5638 5629 5620 5610 5601 5592 5582 5571 5561 5550 5537 5521 5509 5499
5782 5781 5779 5779 5778 5775 5773 5770 5767 5763 5759 5754 5750 5746 5742 5737 5733 5728 5722 5717 5709 5703 5696 5690 5683 5676 5668 5659 5650 5641 5631 5622 5614 5605 5596 5588 5579 5568 5558 5547 5535 5519 5509 5499
5780 5778 5776 5775 5773 5771 5769 5766 5762 5758 5754 5749 5744 5739 5734 5729 5725 5721 5715 5709 5702 5696 5689 5682 5676 5668 5659 5651 5642 5634 5626 5617 5608 5600 5593 5585 5576 5566 5555 5545 5533 5518 5509 5498
5775 5775 5773 5770 5768 5764 5761 5760 5755 5751 5747 5741 5735 5730 5725 5721 5717 5712 5707 5701 5695 5688 5681 5675 5668 5660 5652 5644 5635 5627 5620 5612 5604 5596 5589 5582 5573 5564 5554 5543 5531 5520 5510 5499
5771 5771 5770 5768 5764 5760 5757 5753 5749 5746 5741 5734 5728 5723 5718 5712 5706 5703 5698 5692 5686 5681 5673 5668 5661 5654 5645 5636 5629 5623 5616 5608 5601 5594 5587 5581 5572 5563 5554 5543 5531 5520 5510 5501
5767 5766 5766 5763 5760 5757 5754 5753 5745 5739 5733 5728 5723 5718 5714 5708 5702 5696 5690 5685 5679 5674 5667 5661 5654 5646 5639 5631 5625 5618 5611 5605 5598 5592 5585 5579 5570 5563 5553 5542 5530 5520 5511 5502
5762 5761 5761 5758 5755 5753 5750 5744 5739 5734 5728 5721 5714 5708 5704 5700 5695 5690 5684 5678 5673 5667 5661 5654 5647 5640 5633 5627 5621 5613 5607 5602 5595 5589 5583 5576 5570 5563 5553 5542 5530 5520 5511 5503
5759 5758 5756 5754 5751 5747 5743 5739 5735 5730 5724 5719 5712 5706 5700 5696 5691 5686 5680 5673 5667 5661 5655 5647 5642 5635 5628 5622 5617 5610 5604 5599 5593 5587 5582 5576 5570 5562 5553 5542 5531 5522 5513 5504
5755 5754 5751 5749 5746 5742 5738 5734 5728 5722 5716 5711 5707 5701 5695 5690 5685 5679 5674 5668 5661 5654 5648 5642 5637 5630 5624 5618 5613 5607 5601 5596 5591 5585 5580 5575 5569 5563 5554 5543 5533 5522 5513 5507
5750 5747 5744 5742 5739 5735 5732 5728 5723 5718 5713 5708 5703 5698 5692 5687 5680 5674 5669 5663 5656 5649 5643 5637 5631 5626 5620 5614 5609 5603 5598 5593 5589 5583 5578 5573 5568 5563 5555 5546 5536 5526 5517 5511
5746 5743 5741 5738 5734 5731 5727 5723 5718 5714 5709 5704 5699 5693 5688 5682 5676 5669 5663 5656 5650 5643 5637 5631 5626 5620 5615 5610 5606 5601 5596 5591 5586 5581 5577 5572 5567 5563 5556 5547 5539 5530 5521 5514
5740 5737 5735 5733 5729 5725 5721 5717 5713 5709 5704 5699 5694 5688 5682 5676 5670 5663 5657 5651 5645 5640 5633 5627 5621 5616 5611 5607 5602 5598 5594 5589 5585 5580 5576 5572 5567 5562 5555 5548 5541 5533 5525 5517
5732 5730 5729 5725 5722 5718 5714 5711 5708 5704 5699 5694 5688 5682 5677 5671 5666 5659 5653 5647 5641 5634 5628 5623 5617 5613 5607 5603 5598 5594 5591 5587 5583 5579 5575 5571 5567 5561 5555 5549 5543 5537 5529 5521
5726 5725 5723 5719 5715 5712 5708 5705 5701 5697 5693 5688 5682 5677 5672 5666 5661 5655 5648 5641 5635 5630 5625 5619 5614 5609 5604 5599 5595 5591 5587 5584 5581 5578 5574 5571 5567 5561 5556 5550 5545 5539 5533 5525
5720 5718 5716 5713 5709 5705 5702 5698 5694 5690 5686 5681 5677 5672 5667 5661 5655 5648 5642 5637 5631 5626 5621 5616 5610 5605 5599 5595 5591 5587 5584 5581 5579 5576 5573 5570 5566 5561 5556 5551 5545 5540 5535 5529
5714 5711 5708 5705 5702 5699 5695 5690 5686 5683 5679 5675 5672 5667 5661 5655 5649 5643 5638 5633 5628 5623 5618 5612 5606 5600 5595 5591 5587 5584 5581 5579 5577 5575 5572 5570 5566 5562 5557 5551 5547 5542 5537 5532
5707 5705 5702 5699 5696 5693 5689 5684 5681 5678 5674 5670 5666 5662 5656 5650 5645 5640 5635 5630 5625 5619 5613 5607 5601 5595 5591 5587 5583 5581 5578 5577 5575 5573 5571 5569 5565 5562 5557 5553 5548 5544 5540 5535
5700 5698 5696 5694 5690 5686 5683 5680 5677 5673 5669 5665 5661 5657 5651 5646 5642 5637 5632 5627 5622 5616 5610 5604 5597 5591 5586 5582 5579 5577 5576 5574 5573 5571 5569 5567 5564 5562 5558 5554 5550 5546 5542 5538
5694 5692 5690 5687 5684 5680 5677 5674 5670 5667 5664 5660 5656 5652 5648 5643 5639 5635 5630 5624 5619 5613 5607 5600 5593 5587 5582 5578 5576 5574 5573 5572 5570 5569 5568 5566 5564 5561 5558 5554 5551 5547 5544 5541
5687 5686 5683 5681 5677 5674 5671 5668 5665 5662 5658 5654 5651 5648 5645 5641 5637 5632 5627 5622 5616 5610 5603 5597 5590 5583 5578 5575 5572 5571 5570 5568 5567 5567 5566 5565 5563 5561 5558 5555 5552 5549 5546 5542
5681 5679 5677 5675 5672 5669 5665 5662 5659 5656 5653 5650 5648 5645 5642 5639 5634 5630 5625 5619 5614 5607 5600 5594 5587 5580 5575 5572 5570 5569 5567 5565 5564 5564 5563 5563 5561 5559 5558 5555 5553 5550 5547 5544
5674 5673 5671 5668 5665 5662 5660 5657 5654 5651 5649 5647 5645 5642 5640 5636 5632 5627 5622 5616 5611 5604 5598 5592 5585 5579 5573 5569 5567 5566 5564 5563 5562 5561 5561 5560 5559 5558 5557 5555 5553 5551 5549 5546
5667 5666 5664 5662 5659 5656 5655 5652 5649 5647 5646 5644 5642 5640 5637 5633 5629 5624 5619 5613 5608 5602 5596 5590 5584 5578 5572 5568 5565 5563 5562 5560 5559 5558 5558 5557 5557 5556 5555 5554 5552 5550 5549 5547
5660 5659 5657 5654 5652 5651 5649 5646 5645 5644 5643 5641 5639 5637 5634 5630 5626 5621 5616 5611 5605 5600 5595 5589 5584 5577 5571 5567 5563 5560 5559 5557 5556 5555 5555 5554 5553 5553 5552 5551 5550 5549 5548 5547
5653 5652 5650 5648 5647 5646 5643 5643 5642 5641 5639 5638 5637 5634 5631 5627 5622 5618 5613 5607 5602 5597 5592 5587 5582 5577 5571 5566 5562 5559 5556 5555 5553 5552 5551 5550 5550 5549 5548 5548 5547 5547 5546 5545
5646 5645 5643 5643 5642 5640 5640 5640 5639 5638 5637 5635 5633 5630 5627 5623 5618 5613 5608 5603 5598 5594 5589 5584 5580 5576 5571 5566 5561 5557 5554 5552 5550 5549 5547 5546 5545 5545 5544 5543 5543 5543 5543 5542
Wind_Speed
21 24 28 31 34 37 39 42 44 45 49 50 47 39 36 39 40 43 47 48 50 52 50 53 49 48 42 47 51 52 47 48 50 52 55 48 45 47 50 53 57 59 51 41
13 13 15 17 20 21 24 30 27 29 30 30 31 34 37 41 44 40 38 44 46 45 50 46 49 45 40 47 51 48 47 47 48 50 50 42 44 46 48 53 56 55 43 40
13 13 15 17 15 13 15 18 20 21 23 27 29 31 33 35 39 43 40 44 47 46 44 49 44 38 41 44 49 45 46 47 47 48 41 39 42 43 47 52 55 50 38 41
13 14 15 17 16 18 18 20 22 24 28 32 33 34 35 37 38 38 37 42 43 41 43 40 35 38 44 48 48 45 47 45 44 43 36 38 39 42 46 50 53 44 37 41
15 14 15 17 19 21 22 23 24 29 33 36 36 36 34 34 36 33 38 37 34 43 41 39 39 44 48 47 43 44 46 42 41 34 32 35 36 40 44 47 51 40 36 39
17 16 15 18 19 20 26 27 30 32 36 39 39 36 36 38 38 37 36 35 40 41 38 42 43 45 48 43 41 45 42 39 37 31 31 33 35 39 42 46 49 38 36 39
18 19 18 18 20 22 25 26 30 36 40 40 37 36 31 33 30 41 40 41 40 37 37 36 42 46 44 42 42 40 36 37 33 28 29 31 33 37 40 44 47 38 34 38
20 20 20 19 22 23 25 28 32 36 38 40 43 42 39 34 33 36 32 36 36 34 36 40 43 42 41 41 40 35 34 34 28 26 27 28 31 34 39 43 46 39 33 37
20 20 20 20 23 25 26 29 32 36 36 35 35 35 33 34 35 37 40 33 35 39 43 40 42 42 40 39 38 32 33 30 27 26 26 27 29 32 37 41 44 41 31 35
21 21 22 24 25 26 28 30 35 37 36 33 32 34 31 31 34 34 37 41 42 39 41 41 43 40 38 36 32 31 30 27 26 24 24 25 26 30 35 39 41 42 33 32
21 23 26 27 28 29 30 32 35 35 33 31 29 34 35 36 37 38 39 37 38 39 39 38 39 37 36 32 29 29 27 28 25 23 23 23 24 26 31 34 38 39 33 26
23 24 25 26 28 28 29 32 34 32 30 30 33 34 36 36 35 37 36 36 37 38 37 35 35 36 34 30 29 26 25 25 24 22 22 22 23 24 26 30 35 38 36 25
23 25 27 28 29 29 29 31 31 30 30 32 38 39 38 39 35 35 36 37 37 36 35 36 36 35 31 29 27 25 24 24 21 21 21 21 22 23 24 26 31 35 36 32
26 28 28 29 30 30 29 30 30 29 35 37 38 36 36 33 35 36 37 37 36 35 34 32 31 30 30 28 27 24 23 21 19 20 21 21 21 22 23 23 26 30 34 34
28 27 27 29 29 30 30 32 33 33 34 36 34 33 33 36 37 37 35 35 34 33 32 32 33 32 31 29 27 24 22 19 17 18 19 20 21 21 22 22 22 25 29 33
27 27 27 28 29 30 32 35 35 31 33 34 31 33 39 41 39 37 34 32 33 33 33 33 33 32 31 29 26 23 20 17 15 15 17 18 19 20 20 22 23 24 25 29
26 27 28 29 31 32 34 37 34 31 32 30 32 37 37 37 34 30 30 32 33 33 34 34 32 31 30 27 23 20 19 16 14 14 15 17 18 19 20 20 22 23 24 24
26 27 29 31 32 33 33 28 27 27 28 31 33 33 36 30 26 29 30 31 31 33 34 34 32 30 28 25 21 19 18 16 14 13 13 14 16 17 18 19 19 21 22 22
26 27 29 31 32 32 30 26 26 28 28 30 32 33 28 25 26 27 27 28 31 33 34 34 32 29 27 23 19 17 17 15 13 12 12 12 13 14 16 17 18 18 19 21
26 28 29 30 31 32 29 26 27 30 30 31 31 24 23 24 23 24 26 29 31 33 33 35 34 27 24 20 16 15 15 14 14 12 11 11 11 12 13 15 16 18 18 18
26 27 29 30 32 32 26 26 29 31 29 27 21 21 21 21 23 24 27 30 32 33 34 34 35 29 22 18 15 13 13 13 13 12 10 10 10 10 11 13 14 15 16 17
24 27 28 30 32 29 27 28 28 26 24 17 18 19 19 20 23 26 29 31 31 32 33 33 34 30 23 18 14 11 12 13 12 11 9 9 9 8 10 11 12 12 14 15
26 27 28 28 30 26 27 27 27 21 14 16 17 17 19 22 25 29 30 30 30 31 32 32 32 30 24 18 12 12 12 13 12 11 11 10 9 8 8 9 10 10 11 12
26 27 27 28 28 24 27 27 18 12 13 16 16 18 20 24 27 29 30 30 30 31 30 31 31 30 26 19 14 12 12 12 11 11 11 11 10 10 9 8 9 9 10 9
26 25 26 29 22 24 25 17 9 11 14 14 16 19 23 25 27 29 30 30 30 30 30 30 31 31 28 22 17 13 12 11 11 12 12 12 12 11 11 9 8 9 9 9
24 24 28 21 18 23 12 7 9 12 12 14 16 19 22 25 27 28 31 32 32 31 29 28 30 30 30 26 21 16 14 14 13 13 13 13 12 13 12 12 11 10 9 10
23 27 21 17 22 12 6 8 11 11 13 15 17 21 23 26 28 31 34 35 35 33 30 28 28 29 29 29 25 20 16 15 15 15 15 15 14 14 14 14 14 13 12 11
Wind_Direction
269 267 268 270 270 271 274 280 282 286 286 288 294 298 299 299 300 306 310 309 310 313 314 320 318 319 317 328 329 329 330 331 330 335 335 336 337 341 345 344 344 346 345 347
288 292 286 278 279 287 287 286 297 299 303 310 307 301 296 296 299 303 305 311 312 313 314 318 317 312 323 329 330 329 331 332 331 335 335 335 339 344 347 346 347 349 349 350
302 299 294 301 318 313 308 315 322 326 327 323 315 306 298 296 297 299 298 303 306 307 315 316 309 316 326 328 330 327 331 330 331 335 334 338 342 347 349 350 349 352 353 354
294 291 299 310 307 314 321 329 330 332 332 330 323 314 305 303 300 299 301 309 310 316 314 306 314 328 331 331 330 328 328 327 335 334 335 341 345 349 352 353 353 355 358 358
297 304 313 316 323 326 330 335 331 335 334 330 329 324 322 318 309 298 305 309 311 310 305 302 316 323 327 328 329 327 325 330 335 334 338 342 348 352 354 356 357 358 1 0
298 305 315 320 327 328 328 330 332 331 331 331 332 330 327 323 317 311 314 313 308 297 297 306 313 319 324 329 329 328 328 334 334 335 342 344 350 353 356 358 1 0 3 4
299 307 312 320 320 326 325 326 328 330 332 332 330 328 321 322 320 318 314 309 307 300 304 313 320 323 329 329 327 327 333 334 334 335 342 345 351 354 358 1 3 2 3 6
301 308 317 322 317 320 320 323 328 331 331 329 327 327 325 317 323 316 302 304 307 307 313 319 324 327 329 328 325 328 333 334 331 336 342 346 351 355 359 4 6 4 3 7
299 306 311 310 311 313 318 324 325 328 327 325 325 328 322 324 323 314 316 310 312 315 320 326 328 328 328 328 324 331 333 334 334 337 342 346 348 355 0 5 7 7 6 9
304 309 309 310 313 314 319 322 328 330 329 330 332 334 330 322 323 318 313 317 322 326 324 327 326 327 327 324 325 328 331 333 332 339 343 344 347 353 1 7 8 8 7 10
309 310 309 312 315 314 318 320 325 328 329 329 328 327 328 327 325 328 323 322 326 325 325 327 326 326 324 324 324 326 331 332 332 341 342 343 346 351 359 8 11 11 9 7
301 300 303 306 306 308 312 318 325 327 328 328 332 331 330 328 324 326 327 330 331 329 328 327 327 326 322 322 323 321 328 331 333 342 342 343 348 348 356 7 12 13 13 9
298 298 299 301 301 303 309 318 323 325 332 328 328 329 326 332 332 331 333 331 329 326 327 331 328 324 323 322 321 321 324 329 334 341 343 345 348 350 356 5 11 14 15 15
288 292 302 303 304 306 311 318 320 316 324 327 327 327 326 330 330 330 331 327 327 328 329 329 326 323 322 321 320 319 319 323 334 341 344 346 348 353 358 1 8 13 16 19
283 292 297 302 304 307 312 319 316 315 319 322 327 328 328 329 329 330 331 334 335 334 331 328 324 322 321 319 318 318 316 316 329 340 343 346 349 354 359 1 6 12 15 21
285 291 297 301 305 309 314 316 314 310 314 321 325 325 326 326 328 332 335 335 334 331 328 325 322 320 317 315 314 313 311 310 323 337 341 344 350 355 360 4 6 12 13 19
280 288 297 305 307 312 316 318 315 312 315 320 321 323 325 328 330 334 335 335 335 333 331 328 323 319 315 313 311 313 312 305 316 331 338 344 349 355 0 5 7 13 14 17
279 288 296 304 308 314 317 316 318 318 319 322 321 324 327 329 333 334 338 339 341 341 340 336 329 322 317 314 313 313 311 304 310 320 331 342 347 354 2 6 8 12 16 17
279 288 298 305 309 315 318 314 318 317 321 322 322 325 329 330 335 338 341 345 346 345 344 342 335 325 319 315 313 309 309 301 302 309 323 336 345 352 360 4 10 9 14 17
281 291 301 308 311 318 315 310 315 321 320 320 322 325 327 332 336 339 342 344 345 345 346 347 342 331 322 318 311 307 305 299 298 303 320 331 339 351 357 1 10 13 13 15
286 298 305 309 313 320 312 310 313 317 319 318 321 324 328 331 334 336 339 340 343 343 346 347 347 337 323 316 308 301 300 296 296 303 316 322 332 344 352 358 6 13 16 17
291 300 304 305 313 316 310 314 317 319 315 317 323 324 325 326 330 333 337 339 341 343 346 348 349 344 327 316 313 299 295 292 291 295 300 308 316 333 342 349 360 9 14 17
292 296 301 305 315 308 310 315 316 313 315 322 321 319 320 324 328 334 338 341 342 343 347 349 349 349 340 323 307 290 290 291 290 287 289 292 299 313 326 335 347 356 8 14
293 295 300 309 311 300 310 311 307 310 320 318 313 318 320 325 332 338 340 344 345 345 347 349 350 350 350 337 315 294 288 287 286 288 291 287 286 292 303 315 326 337 349 360
290 296 304 309 302 305 308 300 307 318 312 311 314 317 320 329 335 338 339 342 343 344 346 348 351 351 350 347 332 304 287 286 287 287 286 287 284 277 283 291 300 311 322 332
290 298 308 298 298 307 287 302 316 305 307 313 317 319 324 330 333 337 339 342 343 340 339 344 347 351 352 349 340 326 297 285 283 279 279 282 280 274 269 271 278 285 294 302
293 307 297 291 301 274 280 303 298 305 315 320 324 326 326 329 333 335 336 336 337 337 334 335 336 341 348 351 348 337 320 294 282 283 282 280 279 275 269 268 268 269 273 279